Location: Boiro
(42.6475°N, 8.8834°W)
Time: 01:46:17
(UTC+01:00)

Tiros 1 despin weight - Pass Details

Date: 01 December 2021
Orbit: 592 x 641 km, 48.2° (Epoch: 23 January)

Event Time Altitude Azimuth Distance (km) Brightness Sun altitude
Rises 20:36:16 0° 295° (WNW) 2,827 ? -27.5°
Reaches altitude 10° 20:38:33 10° 296° (WNW) 1,927 ? -28.0°
Enters shadow 20:41:24 40° 299° (WNW) 886 ? -28.5°
Maximum altitude 20:42:58 86° 24° (NNE) 602 - -28.8°
Drops below altitude 10° 20:47:26 10° 115° (ESE) 1,940 - -29.6°
Sets 20:49:44 0° 116° (ESE) 2,849 - -30.0°
